| time (UTC) | temp F | wind direction | speed MPH | gust MPH | rain 1hr in | rain 24hr in | rain mn in | humidity % | barometer mb |
| 20260505073048 | 58 | 194 | 0.0 | 0.0 | 0.00 | 0.00 | 0.00 | 71 | 1011.1 |
| 20260505071514 | 57 | 225 | 0.0 | 0.0 | 0.00 | 0.00 | 0.00 | 72 | 1010.9 |
| 20260505070012 | 57 | 223 | 0.0 | 0.0 | 0.00 | 0.00 | 0.00 | 73 | 1010.7 |
| 20260505064535 | 56 | 230 | 0.0 | 0.0 | 0.00 | 0.00 | 0.00 | 75 | 1010.8 |
| 20260505063011 | 56 | 242 | 0.0 | 0.0 | 0.00 | 0.00 | 0.00 | 75 | 1010.8 |
| 20260505061529 | 56 | 259 | 0.0 | 0.0 | 0.00 | 0.00 | 0.00 | 74 | 1010.8 |
| 20260505060024 | 57 | 259 | 0.0 | 0.0 | 0.00 | 0.00 | 0.00 | 73 | 1010.8 |
| 20260505054522 | 57 | 259 | 0.0 | 0.0 | 0.00 | 0.00 | 0.00 | 73 | 1010.8 |
| 20260505053020 | 58 | 259 | 0.0 | 0.0 | 0.00 | 0.00 | 0.00 | 73 | 1010.8 |
| 20260505051519 | 58 | 259 | 0.0 | 0.0 | 0.00 | 0.00 | 0.00 | 72 | 1010.9 |
| 20260505041528 | 62 | 259 | 0.0 | 0.0 | 0.00 | 0.00 | 0.00 | 64 | 1010.9 |
| 20260505040026 | 63 | 259 | 0.0 | 0.0 | 0.00 | 0.00 | 0.00 | 63 | 1010.9 |
| 20260505034515 | 63 | 228 | 0.0 | 0.0 | 0.00 | 0.00 | 0.00 | 61 | 1011.0 |
| 20260505033009 | 64 | 229 | 0.0 | 0.0 | 0.00 | 0.00 | 0.00 | 60 | 1011.0 |
| 20260505031534 | 65 | 226 | 0.0 | 0.0 | 0.00 | 0.00 | 0.00 | 59 | 1010.9 |
| 20260505030025 | 65 | 248 | 0.0 | 0.0 | 0.00 | 0.00 | 0.00 | 57 | 1010.8 |
| 20260505024522 | 66 | 254 | 0.0 | 0.0 | 0.00 | 0.00 | 0.00 | 56 | 1010.8 |
| 20260505023019 | 67 | 227 | 0.0 | 0.0 | 0.00 | 0.00 | 0.00 | 54 | 1010.7 |
| 20260505021510 | 67 | 238 | 0.0 | 0.0 | 0.00 | 0.00 | 0.00 | 53 | 1010.7 |
| 20260505020023 | 68 | 276 | 0.0 | 0.0 | 0.00 | 0.00 | 0.00 | 52 | 1010.7 |
| 20260505014517 | 68 | 230 | 0.0 | 0.0 | 0.00 | 0.00 | 0.00 | 50 | 1010.5 |
| 20260505013012 | 68 | 198 | 0.0 | 0.0 | 0.00 | 0.00 | 0.00 | 49 | 1010.3 |
| 20260505011513 | 69 | 227 | 0.0 | 0.0 | 0.00 | 0.00 | 0.00 | 48 | 1010.2 |
| 20260505010020 | 70 | 246 | 0.0 | 0.0 | 0.00 | 0.00 | 0.00 | 47 | 1010.0 |
| 20260505004536 | 71 | 223 | 0.0 | 0.0 | 0.00 | 0.00 | 0.00 | 46 | 1009.9 |
| 20260505003026 | 71 | 180 | 0.0 | 0.0 | 0.00 | 0.00 | 0.00 | 46 | 1009.9 |
| 20260505001522 | 72 | 210 | 0.0 | 0.0 | 0.00 | 0.00 | 0.00 | 44 | 1009.8 |
| 20260505000012 | 72 | 171 | 0.0 | 0.0 | 0.00 | 0.00 | 0.00 | 44 | 1009.8 |
| 20260504234528 | 73 | 246 | 0.0 | 0.0 | 0.00 | 0.00 | 0.00 | 43 | 1009.7 |
| 20260504233046 | 73 | 226 | 0.0 | 0.0 | 0.00 | 0.00 | 0.00 | 42 | 1009.6 |
| 20260504231524 | 74 | 188 | 0.0 | 0.0 | 0.00 | 0.00 | 0.00 | 41 | 1009.6 |
| 20260504230026 | 74 | 207 | 0.0 | 0.0 | 0.00 | 0.00 | 0.00 | 41 | 1009.6 |
| 20260504224521 | 75 | 132 | 3.0 | 9.0 | 0.00 | 0.00 | 0.00 | 39 | 1009.4 |
| 20260504223017 | 75 | 252 | 0.0 | 8.0 | 0.00 | 0.00 | 0.00 | 39 | 1009.3 |
| 20260504221510 | 76 | 59 | 2.0 | 9.0 | 0.00 | 0.00 | 0.00 | 37 | 1009.3 |
| 20260504220027 | 78 | 113 | 3.0 | 12.0 | 0.00 | 0.00 | 0.00 | 36 | 1009.5 |
| 20260504214524 | 78 | 234 | 0.0 | 9.0 | 0.00 | 0.00 | 0.00 | 35 | 1009.5 |
| 20260504213020 | 79 | 213 | 0.0 | 10.0 | 0.00 | 0.00 | 0.00 | 34 | 1009.6 |
| 20260504211522 | 79 | 191 | 0.0 | 11.0 | 0.00 | 0.00 | 0.00 | 35 | 1009.6 |
| 20260504210019 | 80 | 203 | 3.0 | 12.0 | 0.00 | 0.00 | 0.00 | 33 | 1009.4 |
| 20260504204517 | 81 | 197 | 0.0 | 0.0 | 0.00 | 0.00 | 0.00 | 31 | 1009.3 |
| 20260504203033 | 80 | 202 | 0.0 | 7.0 | 0.00 | 0.00 | 0.00 | 35 | 1009.3 |
| 20260504201531 | 80 | 202 | 1.0 | 11.0 | 0.00 | 0.00 | 0.00 | 35 | 1009.6 |
| 20260504200046 | 80 | 194 | 0.0 | 1.0 | 0.00 | 0.00 | 0.00 | 36 | 1009.7 |
| 20260504194520 | 79 | 180 | 2.0 | 11.0 | 0.00 | 0.00 | 0.00 | 34 | 1010.0 |
| 20260504193034 | 79 | 153 | 0.0 | 9.0 | 0.00 | 0.00 | 0.00 | 34 | 1010.1 |
| 20260504191545 | 79 | 173 | 0.0 | 1.0 | 0.00 | 0.00 | 0.00 | 34 | 1010.4 |
| 20260504190045 | 78 | 275 | 0.0 | 10.0 | 0.00 | 0.00 | 0.00 | 34 | 1010.7 |
| 20260504184516 | 78 | 232 | 0.0 | 0.0 | 0.00 | 0.00 | 0.00 | 34 | 1010.9 |
| 20260504183011 | 78 | 180 | 0.0 | 10.0 | 0.00 | 0.00 | 0.00 | 35 | 1011.2 |
| 20260504181526 | 77 | 200 | 0.0 | 9.0 | 0.00 | 0.00 | 0.00 | 36 | 1011.5 |
| 20260504180016 | 77 | 240 | 1.0 | 7.0 | 0.00 | 0.00 | 0.00 | 37 | 1011.8 |
| 20260504174512 | 76 | 195 | 0.0 | 7.0 | 0.00 | 0.00 | 0.00 | 39 | 1011.9 |
| 20260504173026 | 75 | 200 | 0.0 | 0.0 | 0.00 | 0.00 | 0.00 | 38 | 1012.1 |
| 20260504171520 | 75 | 178 | 0.0 | 4.0 | 0.00 | 0.00 | 0.00 | 36 | 1012.3 |
| 20260504081530 | 47 | 236 | 0.0 | 0.0 | 0.00 | 0.00 | 0.00 | 73 | 1015.3 |